• In Hungary
  • List of Countries
  • For 7 days
  • Water Temperature
  • Satellite Maps
  • Weather Map
  • News
  • Weather Widgets
  • user-avatar
    Login

    Hourly Weather Novaya Prismara

    Today, 16 July, Monday

    Time Temperature Precipitation Wind Pressure Humidity
    00:00 +18°C° 0.2 mm 2 mps 738 mmHg 96%
    01:00 +18°C° 0.2 mm 2 mps 738 mmHg 96%
    02:00 +18°C° 0.2 mm 2 mps 737 mmHg 96%
    03:00 +18°C° 0.5 mm 2 mps 737 mmHg 96%
    04:00 +18°C° 0.5 mm 2 mps 737 mmHg 97%
    05:00 +18°C° 0.5 mm 3 mps 737 mmHg 97%
    06:00 +19°C° 0.4 mm 3 mps 737 mmHg 96%
    07:00 +20°C° 0.4 mm 3 mps 737 mmHg 95%
    08:00 +21°C° 0.4 mm 3 mps 737 mmHg 94%
    09:00 +22°C° 0.8 mm 4 mps 737 mmHg 90%
    10:00 +23°C° 0.8 mm 4 mps 737 mmHg 86%
    11:00 +25°C° 0.8 mm 4 mps 737 mmHg 83%
    12:00 +26°C° 0.6 mm 4 mps 737 mmHg 81%
    13:00 +26°C° 0.6 mm 4 mps 736 mmHg 79%
    14:00 +27°C° 0.6 mm 4 mps 736 mmHg 78%
    15:00 +26°C° 0.7 mm 4 mps 736 mmHg 81%
    16:00 +26°C° 0.7 mm 4 mps 736 mmHg 84%
    17:00 +26°C° 0.7 mm 3 mps 736 mmHg 87%
    18:00 +25°C° 0.9 mm 3 mps 736 mmHg 89%
    19:00 +24°C° 0.9 mm 3 mps 736 mmHg 90%
    20:00 +22°C° 0.9 mm 3 mps 736 mmHg 92%
    21:00 +21°C° 0.7 mm 3 mps 736 mmHg 93%
    22:00 +21°C° 0.7 mm 3 mps 736 mmHg 94%
    23:00 +20°C° 0.7 mm 3 mps 736 mmHg 94%

    Tomorrow, 17 July, Tuesday

    Time Temperature Precipitation Wind Pressure Humidity
    00:00 +20°C° 0.1 mm 3 mps 735 mmHg 95%
    01:00 +20°C° 0.1 mm 4 mps 735 mmHg 95%
    02:00 +19°C° 0.1 mm 4 mps 735 mmHg 96%
    03:00 +19°C° 0.3 mm 4 mps 735 mmHg 96%
    04:00 +19°C° 0.3 mm 5 mps 735 mmHg 97%
    05:00 +20°C° 0.3 mm 5 mps 735 mmHg 97%
    06:00 +21°C° 0.1 mm 5 mps 735 mmHg 93%
    07:00 +22°C° 0.1 mm 5 mps 734 mmHg 90%
    08:00 +23°C° 0.1 mm 6 mps 734 mmHg 86%
    09:00 +24°C° 1.2 mm 6 mps 734 mmHg 83%
    10:00 +26°C° 1.2 mm 6 mps 734 mmHg 80%
    11:00 +27°C° 1.2 mm 6 mps 734 mmHg 77%
    12:00 +27°C° 0.5 mm 6 mps 734 mmHg 76%
    13:00 +27°C° 0.5 mm 6 mps 734 mmHg 75%
    14:00 +28°C° 0.5 mm 6 mps 733 mmHg 75%
    15:00 +27°C° 0.3 mm 5 mps 733 mmHg 77%
    16:00 +27°C° 0.3 mm 5 mps 733 mmHg 79%
    17:00 +26°C° 0.3 mm 5 mps 733 mmHg 81%
    18:00 +25°C° 0.1 mm 4 mps 733 mmHg 84%
    19:00 +23°C° 0.1 mm 4 mps 733 mmHg 87%
    20:00 +22°C° 0.1 mm 4 mps 733 mmHg 90%
    21:00 +21°C° 0 mm 4 mps 733 mmHg 92%
    22:00 +21°C° 0 mm 4 mps 733 mmHg 94%
    23:00 +20°C° 0 mm 3 mps 733 mmHg 96%

    Day after tomorrow, 18 July, Wednesday

    Time Temperature Precipitation Wind Pressure Humidity
    00:00 +20°C° 0 mm 3 mps 733 mmHg 97%
    01:00 +20°C° 0 mm 3 mps 733 mmHg 97%
    02:00 +19°C° 0 mm 3 mps 733 mmHg 97%
    03:00 +19°C° 0 mm 3 mps 733 mmHg 97%
    04:00 +20°C° 0 mm 3 mps 733 mmHg 97%
    05:00 +20°C° 0 mm 4 mps 733 mmHg 97%
    06:00 +20°C° 0 mm 4 mps 733 mmHg 95%
    07:00 +21°C° 0 mm 4 mps 733 mmHg 93%
    08:00 +21°C° 0 mm 4 mps 733 mmHg 91%
    09:00 +22°C° 0.1 mm 5 mps 733 mmHg 86%
    10:00 +23°C° 0.1 mm 5 mps 733 mmHg 81%
    11:00 +25°C° 0.1 mm 5 mps 733 mmHg 77%
    12:00 +25°C° 0.6 mm 5 mps 733 mmHg 78%
    13:00 +26°C° 0.6 mm 5 mps 733 mmHg 79%
    14:00 +26°C° 0.6 mm 5 mps 733 mmHg 80%
    15:00 +25°C° 0.5 mm 5 mps 733 mmHg 83%
    16:00 +23°C° 0.5 mm 5 mps 733 mmHg 86%
    17:00 +23°C° 0.5 mm 5 mps 733 mmHg 89%
    18:00 +22°C° 0.2 mm 4 mps 733 mmHg 91%
    19:00 +21°C° 0.2 mm 4 mps 733 mmHg 93%
    20:00 +20°C° 0.2 mm 3 mps 733 mmHg 95%
    21:00 +20°C° 0 mm 3 mps 733 mmHg 96%
    22:00 +19°C° 0 mm 3 mps 733 mmHg 97%
    23:00 +19°C° 0 mm 3 mps 733 mmHg 97%

    19 July, Thursday

    Time Temperature Precipitation Wind Pressure Humidity
    00:00 +19°C° 0.1 mm 3 mps 733 mmHg 97%
    01:00 +19°C° 0.1 mm 3 mps 733 mmHg 97%
    02:00 +19°C° 0.1 mm 3 mps 733 mmHg 97%
    03:00 +19°C° 0.1 mm 3 mps 733 mmHg 97%
    04:00 +19°C° 0.1 mm 3 mps 733 mmHg 97%
    05:00 +19°C° 0.1 mm 3 mps 733 mmHg 97%
    06:00 +19°C° 0.2 mm 3 mps 733 mmHg 97%
    07:00 +19°C° 0.2 mm 3 mps 733 mmHg 97%
    08:00 +19°C° 0.2 mm 3 mps 733 mmHg 96%
    09:00 +19°C° 0.2 mm 3 mps 733 mmHg 96%
    10:00 +20°C° 0.2 mm 2 mps 734 mmHg 95%
    11:00 +20°C° 0.2 mm 2 mps 734 mmHg 95%
    12:00 +21°C° 0.5 mm 2 mps 734 mmHg 92%
    13:00 +21°C° 0.5 mm 3 mps 734 mmHg 90%
    14:00 +22°C° 0.5 mm 3 mps 734 mmHg 88%
    15:00 +22°C° 0.9 mm 3 mps 734 mmHg 87%
    16:00 +24°C° 0.9 mm 3 mps 734 mmHg 87%
    17:00 +24°C° 0.9 mm 3 mps 734 mmHg 86%
    18:00 +23°C° 0.5 mm 2 mps 734 mmHg 89%
    19:00 +21°C° 0.5 mm 2 mps 734 mmHg 92%
    20:00 +20°C° 0.5 mm 2 mps 734 mmHg 95%
    21:00 +20°C° 0.2 mm 2 mps 734 mmHg 96%
    22:00 +19°C° 0.2 mm 2 mps 734 mmHg 96%
    23:00 +19°C° 0.2 mm 2 mps 734 mmHg 97%

    20 July, Friday

    Time Temperature Precipitation Wind Pressure Humidity
    00:00 +18°C° 0 mm 2 mps 734 mmHg 97%
    01:00 +18°C° 0 mm 2 mps 734 mmHg 98%
    02:00 +18°C° 0 mm 2 mps 734 mmHg 98%
    03:00 +18°C° 0 mm 2 mps 734 mmHg 98%
    04:00 +18°C° 0 mm 2 mps 734 mmHg 98%
    05:00 +18°C° 0 mm 2 mps 734 mmHg 98%
    06:00 +19°C° 0 mm 2 mps 734 mmHg 96%
    07:00 +20°C° 0 mm 2 mps 734 mmHg 94%
    08:00 +21°C° 0 mm 2 mps 735 mmHg 92%
    09:00 +23°C° 0.1 mm 2 mps 735 mmHg 89%
    10:00 +23°C° 0.1 mm 2 mps 735 mmHg 86%
    11:00 +24°C° 0.1 mm 2 mps 735 mmHg 83%
    12:00 +25°C° 0.2 mm 2 mps 735 mmHg 79%
    13:00 +26°C° 0.2 mm 2 mps 735 mmHg 75%
    14:00 +27°C° 0.2 mm 2 mps 735 mmHg 71%
    15:00 +27°C° 0.2 mm 1 mps 735 mmHg 72%
    16:00 +27°C° 0.2 mm 1 mps 735 mmHg 74%
    17:00 +26°C° 0.2 mm 1 mps 735 mmHg 76%
    18:00 +25°C° 0.1 mm 1 mps 735 mmHg 81%
    19:00 +24°C° 0.1 mm 1 mps 735 mmHg 85%
    20:00 +22°C° 0.1 mm 1 mps 735 mmHg 90%
    21:00 +22°C° 0 mm 1 mps 735 mmHg 92%
    22:00 +21°C° 0 mm 1 mps 735 mmHg 93%
    23:00 +21°C° 0 mm 1 mps 735 mmHg 95%

    21 July, Saturday

    Time Temperature Precipitation Wind Pressure Humidity
    00:00 +20°C° 0 mm 1 mps 735 mmHg 96%
    01:00 +20°C° 0 mm 1 mps 735 mmHg 96%
    02:00 +20°C° 0 mm 1 mps 736 mmHg 97%
    03:00 +20°C° 0 mm 1 mps 736 mmHg 98%
    04:00 +20°C° 0 mm 1 mps 736 mmHg 98%
    05:00 +19°C° 0 mm 2 mps 736 mmHg 98%
    06:00 +20°C° 0 mm 2 mps 736 mmHg 95%
    07:00 +21°C° 0 mm 2 mps 736 mmHg 93%
    08:00 +23°C° 0 mm 2 mps 736 mmHg 90%
    09:00 +22°C° 0.2 mm 3 mps 737 mmHg 89%
    10:00 +24°C° 0.2 mm 3 mps 737 mmHg 87%
    11:00 +24°C° 0.2 mm 3 mps 737 mmHg 86%
    12:00 +25°C° 0.1 mm 3 mps 737 mmHg 83%
    13:00 +25°C° 0.1 mm 4 mps 737 mmHg 80%
    14:00 +26°C° 0.1 mm 4 mps 737 mmHg 77%
    15:00 +26°C° 0.1 mm 4 mps 737 mmHg 78%
    16:00 +26°C° 0.1 mm 3 mps 737 mmHg 78%
    17:00 +26°C° 0.1 mm 3 mps 737 mmHg 79%
    18:00 +25°C° 0.1 mm 3 mps 737 mmHg 83%
    19:00 +24°C° 0.1 mm 2 mps 737 mmHg 87%
    20:00 +23°C° 0.1 mm 2 mps 737 mmHg 91%
    21:00 +21°C° 0 mm 2 mps 738 mmHg 92%
    22:00 +20°C° 0 mm 2 mps 738 mmHg 93%
    23:00 +19°C° 0 mm 2 mps 738 mmHg 93%
    Show more